www.pogodaiklimat.ru

Погода и климат >> Архив погоды >> Россия >> Ростовская область >> Маргаритово


ПОГОДА в Маргаритово

  • Прогноз погоды в Маргаритово
  • Монитор погоды в Маргаритово

АРХИВ ПОГОДЫ в Маргаритово

Время (UTC), дата Ветер
(напр.,м/с)
 
Видим.   Явления Облачность Т
(С)
Тd
(С)
f
(%)
Тe
(С)
Тes
(С)
Комфортность P
(гПа)
Po
(гПа)
Тmin
(С)
Tmax
(С)
R
(мм)
R24
(мм)
S
(см)
12 14.08 В 5-10
{11}
20 км ясно +34.0 +3.1 14 +31 +37 жарко 1012.5 1011.0
15 14.08 В 6-10
{11}
20 км ясно +33.1 +1.3 13 +30 +30 жарко 1011.3 1009.8 +34.4
18 14.08 В 2
{10}
20 км ясно +26.5 +2.3 21 +25 +25 комфорт 1011.7 1010.2
21 14.08 В 3 20 км ясно +24.2 +4.1 27 +24 +24 комфорт 1010.8 1009.3
00 15.08 В 3 20 км ясно +21.6 +3.8 31 +22 +22 комфорт 1010.4 1008.8
03 15.08 В 2 20 км ясно +20.2 +3.4 33 +21 +21 комфорт 1010.0 1008.4 +20.1
06 15.08 В 9-14
{14}
20 км ясно +28.8 -0.9 14 +26 +27 жарко 1009.2 1007.7
09 15.08 В 9-14
{15}
20 км 3/0
[Ci fib]
+34.0 -2.3 10 +30 +32 жарко 1007.4 1006.0
12 15.08 В 7-13
{15}
20 км 4/0
[Ci fib]
+36.8 -1.0 9 +33 +36 жарко 1006.0 1004.5
15 15.08 ЮВ 6
{13}
20 км 3/0
[Ci fib]
+35.3 -0.2 11 +32 +32 жарко 1005.5 1004.1 +37.1
18 15.08 В 4
{10}
20 км 3/0
[Ci fib]
+29.9 +0.3 15 +27 +27 жарко 1006.1 1004.6
21 15.08 В 5 20 км 3/0 2000 м
[Ac trans]
+26.7 +2.1 20 +25 +25 комфорт 1006.4 1004.9
00 16.08 ЮВ 5 20 км 4/0 2000 м
[Ac trans]
+24.1 +4.6 28 +24 +24 комфорт 1006.4 1004.9
03 16.08 В 5 20 км 9/0 2000 м
[Ac As]
+23.9 +6.6 33 +24 +24 комфорт 1005.5 1004.0 +23.7
06 16.08 ЮВ 4 20 км 9/0 2000 м
[Ac As]
+26.6 +9.0 33 +27 +29 жарко 1006.2 1004.7 +23.4
09 16.08 ЮВ 3 20 км 10/0 2000 м
[Ac und]
+28.2 +10.7 34 +29 +33 жарко 1006.4 1004.9
12 16.08 С 3 20 км 10/0 2000 м
[Ac und]
+27.2 +15.9 50 +30 +33 душно 1006.2 1004.7
15 16.08 ЮВ 3 20 км 8/3 600 м
[Cb cap Ac cuf]
+29.2 +13.1 37 +31 +31 жарко 1005.9 1004.4 +30.5
18 16.08 СВ 1 10 км 8/6 600 м
[Cb cap Ac cuf]
+24.9 +17.5 63 +29 +29 душно 1006.6 1005.1
21 16.08 З 1 н/о {ливн. осадки} н/о +22.1 +19.2 84 +28 +28 душно 1007.2 1005.7
00 17.08 С 3 10 км {ливн. осадки} 10/10 600 м
[Cb cap]
+23.4 +18.1 72 +29 +29 душно 1006.7 1005.2
03 17.08 ЮВ 2 20 км 10/10 600 м
[Cb cap]
+21.3 +18.6 85 +26 +26 душно 1008.5 1007.0 +21.3 0.3
06 17.08 ЮЗ 1 10 км {ливн. осадки} 10/10 600 м
[Cb cap]
+22.1 +18.1 78 +27 +27 душно 1008.5 1007.0 +20.9
09 17.08 СЗ 3 20 км 8/3 1000 м
[Cu med, cong Ac As Ci fib]
+26.9 +17.3 56 +31 +37 душно 1008.3 1006.9
12 17.08 СЗ 3 20 км 4/4 600 м
[Cb calv]
+27.2 +17.2 54 +31 +36 душно 1008.2 1006.8
15 17.08 З 5 20 км 3/3 1000 м
[Cu med, cong Ci fib]
+24.8 +19.7 73 +30 +31 душно 1008.7 1007.2 +27.4
18 17.08 ЮЗ 4 10 км 3/0
[Ci sp]
+23.4 +19.6 79 +30 +30 очень
душно
1009.6 1008.1
21 17.08 ЮЗ 2 10 км 9/0
[Ci sp]
+21.4 +18.5 84 +26 +26 душно 1009.3 1007.8
00 18.08 СЗ 4 10 км 1/0
[Ci fib]
+21.4 +17.3 77 +25 +25 комфорт 1009.5 1008.0
03 18.08 СЗ 3 н/о н/о +20.9 +17.2 79 +25 +25 комфорт 1009.7 1008.2 +19.9
06 18.08 СЗ 2 20 км 8/0
[Ci sp]
+22.3 +17.4 74 +27 +33 душно 1010.3 1008.8
09 18.08 З 3 20 км 9/0
[Ci sp]
+24.2 +17.1 65 +28 +38 душно 1010.4 1008.9
12 18.08 З 3 20 км 10/8 600 м
[Cb cap Ac und]
+25.4 +17.1 60 +29 +30 душно 1010.5 1009.0
15 18.08 З 2 20 км 10/10 600 м
[Cb cap]
+25.1 +17.8 64 +29 +29 душно 1010.8 1009.3 +26.1
18 18.08 ЮЗ 8-11
{11}
20 км 10/10 600 м
[Cb cap]
+22.9 +18.3 75 +29 +29 очень
душно
1012.5 1011.0
21 18.08 С 3
{14}
10 км слаб. ливневой дождь 10/10 600 м
[Cb cap]
+19.8 +18.9 95 +23 +23 комфорт 1013.0 1011.5
00 19.08 штиль 0 10 км {гроза, ливн. осадки} 10/10 600 м
[Cb cap]
+19.6 +18.8 95 +22 +22 комфорт 1013.4 1011.9
03 19.08 СЗ 2 20 км 10/10 600 м
[Cb cap]
+21.2 +19.6 91 +26 +26 душно 1014.2 1012.7 +19.6 22
06 19.08 С 1 10 км слаб. ливневой дождь 10/10 600 м
[Cb cap]
+20.9 +19.6 92 +27 +27 душно 1015.6 1014.0
09 19.08 СЗ 3 20 км {ливн. осадки} 8/8 600 м
[Cb cap]
+24.0 +20.4 80 +30 +32 очень
душно
1016.1 1014.6
12 19.08 СЗ 2 20 км {ливн. осадки} 8/3 600 м
[Cb cap Ci fib]
+25.1 +19.8 72 +31 +37 очень
душно
1016.5 1015.0
15 19.08 СЗ 2 20 км 3/0 2000 м
[Ac cuf]
+25.7 +19.5 69 +31 +32 очень
душно
1016.8 1015.3 +26.0 2
18 19.08 СЗ 2 20 км 4/0 2000 м
[Ac cast]
+24.5 +20.7 79 +30 +30 очень
душно
1017.5 1016.0
21 19.08 С 4 10 км 4/0
[Ci fib]
+23.7 +20.8 84 +30 +30 очень
душно
1017.3 1015.8
00 20.08 С 5 10 км 3/0
[Ci fib]
+23.1 +20.4 85 +30 +30 очень
душно
1016.9 1015.4
03 20.08 СВ 2 4000 м дымка 6/0 2000 м
[Ac cast]
+22.2 +20.5 90 +29 +29 очень
душно
1017.9 1016.4 +22.1
06 20.08 С 5 4000 м дымка 8/0 2000 м
[Ac trans]
+24.1 +20.7 81 +30 +32 очень
душно
1018.5 1017.0
09 20.08 С 5 10 км 10/0
[Cs]
+27.8 +20.6 65 +35 +41 очень
душно
1018.2 1016.7
12 20.08 СЗ 3 10 км ясно +30.5 +20.3 55 +37 +46 очень
душно
1017.1 1015.6
15 20.08 С 4 20 км ясно +29.4 +21.8 64 +38 +39 очень
душно
1017.0 1015.6 +31.3
18 20.08 С 5 20 км ясно +27.0 +21.1 70 +34 +34 очень
душно
1016.9 1015.4
21 20.08 С 6
{10}
20 км 3/0
[Ci sp]
+25.1 +19.5 71 +30 +30 душно 1017.1 1015.6
00 21.08 С 8-11
{11}
20 км 4/0
[Ci sp]
+24.2 +18.2 69 +29 +29 душно 1016.5 1015.0
03 21.08 СВ 7-10
{12}
20 км 4/0
[Ci sp]
+23.3 +18.0 72 +29 +29 душно 1016.2 1014.7 +23.3
06 21.08 СВ 7-12
{12}
20 км 9/0
[Ci sp]
+24.3 +17.1 64 +28 +30 душно 1016.2 1014.6

 

Местоположение метеостанции Маргаритово (Ростовская область, Россия): широта 46.93 долгота 38.87 высота над уровнем моря 13 м.

В архиве по умолчанию представлена погода в Маргаритово за последнюю неделю. Архивные данные за месяц целиком и за предыдущие месяцы, начиная с января 2011 года, Вы можете получить, выбрав интересующий диапазон дат из раскрывающегося списка и нажав кнопку "Ввод!".


*Определитесь, кто Вы:
робот инопланетянин человек

Внимание! Время в таблицах - всемирное. Для получения местного времени необходимо прибавить поправку, которая равна 3 ч.

Смотрите также архив погоды в соседних городах и на ближайших метеорологических станциях:

Погода в Таганроге (Ростовская область, Россия) (30 км)
Погода в Староминская (Краснодарский край, Россия) (46 км)
Погода в Ейске (Краснодарский край, Россия) (48 км)
Погода в Матвеевом Кургане (Ростовская область, Россия) (71 км)
Погода в Кущевской (Краснодарский край, Россия) (72 км)
Погода в Ростове-на-Дону (Ростовская область, Россия) (81 км)
Погода в Должанке (Краснодарский край, Россия) (91 км)
Погода в Каневской (Краснодарский край, Россия) (96 км)
Погода в Аэропорту Платов (Ростовская область, Россия) (101 км)
Погода в Мариуполе (Донецкая область, Украина) (105 км)

Пояснения к столбцам:

Ветер - указаны скорость ветра в м/с - средняя за 10 мин, порывы в срок и между сроками (в фигурных скобках) и направление, откуда дует ветер: С - северный, СВ - северо-восточный, В - восточный, ЮВ - юго-восточный, Ю - южный, ЮЗ - юго-западный, З - западный, СЗ - северо-западный.
Видимость - горизонтальная дальность видимости в метрах или километрах. При видимости от 1 до 10 км при отсутствии осадков обычно наблюдается дымка, при ухудшении видимости до 1 км и менее - туман. В сухую погоду видимость может ухудшаться дымом, пылью или мглою.
Явления - указаны атмосферные явления, наблюдавшиеся в срок или в последний час перед сроком; фигурными скобками обозначены явления, наблюдавшиеся между сроками (за 1-3 часа до срока); квадратными скобками обозначены град или гололедные отложения с указанием их диаметра в мм.
Облачность - указаны через наклонную черту общая и нижняя облачность в баллах и высота нижней границы облаков в метрах; квадратными скобками обозначены формы облаков: Ci - перистые, Cs - перисто-слоистые, Cc - перисто-кучевые, Ac - высококучевые, As - высокослоистые, Sc - слоисто-кучевые, Ns - слоисто-дождевые, Cu - кучевые, Cb - кучево-дождевые. Подробнее классификацию облаков см. в Атласе облаков (PDF).
T - Температура воздуха - температура, измеренная на высоте 2 м над землей.
Td - Температура точки росы - температура, при понижении до которой содержащийся в воздухе водяной пар достигнет насыщения.
f - Относительная влажность воздуха - влажноcть воздуха, измеренная на высоте 2 м над землей.
Te - Эффективная температура - температура, которую ощущает одетый по сезону человек в тени. Характеристика душности погоды. При расчете учитывается влияние влажности воздуха и скорости ветра на теплоощущения человека.
Tes - Эффективная температура на солнце - температура, которую ощущает человек, с поправкой на солнечный нагрев. Характеристика знойности погоды. Зависит от высоты солнца над горизонтом, облачности и скорости ветра. Ночью, в пасмурную погоду, а также при ветре 12 м/с и более поправка равна нулю.
P - Атмосферное давление - приведенное к уровню моря атмосферное давление.
Po - Атмосферное давление - измеренное на уровне метеостанции атмосферное давление.
Tmin - Минимальная температура - минимум температуры воздуха на высоте 2 м над землей.
Tmax - Максимальная температура - максимум температуры воздуха на высоте 2 м над землей.
R - Количество осадков - Количество выпавших осадков за период времени, мм. При наведении курсора мыши на число - период времени, за который выпало указанное количество осадков.
R24 - Количество осадков - Количество выпавших осадков за 24 часа, мм.
S - Снежный покров - Высота снежного покрова, см. При наведении курсора мыши на число - состояние снежного покрова и степень покрытия местности в баллах.